Location: Auckland
(36.8670°S, 174.7670°E)
Time: 12:17:13
(UTC+12:00)

Courier 1B Rocket - Pass Details

Date: 28 July 2019
Orbit: 920 x 1202 km, 28.3° (Epoch: 24 August)

Event Time Altitude Azimuth Distance (km) Brightness Sun altitude
Rises 23:46:30 0° 331° (NNW) 3,947 - -70.0°
Reaches altitude 10° 23:50:21 10° 350° (N) 3,040 - -70.3°
Maximum altitude 23:54:58 17° 28° (NNE) 2,580 - -70.7°
Drops below altitude 10° 23:59:41 10° 66° (ENE) 3,126 - -71.1°
Sets 00:03:42 0° 84° (E) 4,107 - -71.4°
